contact:dominique.lefevre@mio.osupytheas.fr, maurice.libes@osupytheas.fr, didier.mallarino@osupytheas.fr
Project:EMSO http://www.emso-fr.org/EMSO-France
Depth: 2436.0 m
Title:EMSO Ligure Ouest : Data MII capteur AQUADOPP
Date,Latitude,Longitude,X_East,Y_North,Z_Up,Amplitude_X,Amplitude_Y,Amplitude_Z,Batterie,SoundSpeed,Heading,Pitch,Roll,Pressure,TIS,Speed,Direction
, degrees North, degrees East, m.s-1, m.s-1,m.s-1, 1, 1, 1, Volt, m.s-1, degree, degree, degree, dbar, degree_C, m.s-1, degree
2021-11-14T00:04:03,42.805,6.029,-0.058,0.043,-0.01,101.0,101.0,100.0,13.4,1505.2,327.7,-0.8,1.8,2470.645,13.28,0.072,306.6
2021-11-14T00:07:03,42.805,6.029,-0.07,0.042,-0.014,101.0,101.0,100.0,13.4,1505.2,328.5,-0.8,1.8,2470.621,13.28,0.081,301.0
2021-11-14T00:10:03,42.805,6.029,-0.053,0.038,-0.007,101.0,101.0,100.0,13.3,1505.2,330.5,-0.7,1.8,2470.633,13.28,0.065,305.6
2021-11-14T00:13:03,42.805,6.029,-0.039,0.031,-0.009,101.0,100.0,101.0,13.4,1505.2,326.3,-0.8,1.8,2470.633,13.28,0.049,308.5
2021-11-14T00:16:03,42.805,6.029,-0.046,0.05,-0.018,101.0,101.0,99.0,13.4,1505.2,330.9,-0.7,1.8,2470.631,13.28,0.067,317.4
2021-11-14T00:19:03,42.805,6.029,-0.045,0.047,-0.016,100.0,102.0,100.0,13.3,1505.2,324.8,-0.7,1.8,2470.613,13.28,0.065,316.2
2021-11-14T00:22:03,42.805,6.029,-0.057,0.029,-0.032,101.0,100.0,99.0,13.4,1505.2,328.1,-0.8,1.8,2470.604,13.28,0.063,297.0
2021-11-14T00:25:03,42.805,6.029,-0.072,0.023,0.0,100.0,101.0,99.0,13.3,1505.2,329.7,-0.7,1.8,2470.622,13.28,0.075,287.7
2021-11-14T00:28:03,42.805,6.029,-0.073,0.036,-0.042,100.0,100.0,100.0,13.4,1505.2,330.3,-0.8,1.9,2470.573,13.28,0.081,296.2
2021-11-14T00:31:03,42.805,6.029,-0.065,0.034,0.009,101.0,102.0,99.0,13.3,1505.2,326.8,-0.8,1.8,2470.586,13.28,0.073,297.6
2021-11-14T00:34:03,42.805,6.029,-0.054,0.027,0.003,103.0,100.0,101.0,13.4,1505.2,325.4,-0.7,1.8,2470.552,13.28,0.06,296.6
2021-11-14T00:37:03,42.805,6.029,-0.063,0.041,0.006,100.0,100.0,100.0,13.4,1505.2,326.9,-0.8,1.9,2470.638,13.28,0.075,303.1
2021-11-14T00:40:03,42.805,6.029,-0.049,0.009,-0.039,102.0,101.0,100.0,13.4,1505.2,330.1,-0.7,1.8,2470.608,13.28,0.049,280.4
2021-11-14T00:43:03,42.805,6.029,-0.067,0.018,-0.035,102.0,101.0,100.0,13.4,1505.2,330.6,-0.8,1.8,2470.572,13.28,0.069,285.0
2021-11-14T00:46:03,42.805,6.029,-0.063,0.037,0.003,102.0,101.0,101.0,13.4,1505.2,326.7,-0.7,1.8,2470.564,13.28,0.073,300.4
2021-11-14T00:49:03,42.805,6.029,-0.072,0.013,-0.033,101.0,101.0,100.0,13.4,1505.2,325.5,-0.7,1.9,2470.616,13.28,0.073,280.2
2021-11-14T00:52:03,42.805,6.029,-0.068,0.035,-0.003,102.0,102.0,100.0,13.3,1505.2,329.0,-0.8,1.8,2470.623,13.28,0.076,297.2
2021-11-14T00:55:03,42.805,6.029,-0.035,0.041,-0.009,102.0,104.0,99.0,13.4,1505.2,327.2,-0.8,1.9,2470.562,13.28,0.053,319.5
2021-11-14T00:58:03,42.805,6.029,-0.071,0.026,-0.041,102.0,101.0,100.0,13.3,1505.2,327.2,-0.8,1.8,2470.645,13.28,0.075,290.1
2021-11-14T01:04:03,42.805,6.029,-0.073,0.005,-0.052,104.0,103.0,102.0,13.4,1505.2,328.0,-0.8,1.8,2470.627,13.28,0.073,273.9
2021-11-14T01:07:03,42.805,6.029,-0.08,0.038,-0.009,103.0,104.0,101.0,13.4,1505.2,329.4,-0.8,1.8,2470.617,13.28,0.088,295.4
2021-11-14T01:10:03,42.805,6.029,-0.059,0.051,-0.021,102.0,101.0,100.0,13.4,1505.2,329.6,-0.7,1.8,2470.646,13.28,0.077,310.8
2021-11-14T01:13:03,42.805,6.029,-0.069,0.038,-0.028,101.0,101.0,100.0,13.4,1505.2,329.0,-0.7,1.8,2470.606,13.28,0.078,298.8
2021-11-14T01:16:03,42.805,6.029,-0.077,0.016,-0.062,101.0,102.0,100.0,13.4,1505.2,329.0,-0.8,1.8,2470.653,13.28,0.078,281.7
2021-11-14T01:19:03,42.805,6.029,-0.078,0.034,-0.009,99.0,100.0,102.0,13.4,1505.2,325.3,-0.8,1.8,2470.644,13.28,0.085,293.5
2021-11-14T01:22:03,42.805,6.029,-0.064,0.045,-0.013,101.0,100.0,101.0,13.4,1505.2,327.5,-0.7,1.8,2470.625,13.28,0.078,305.1
2021-11-14T01:25:03,42.805,6.029,-0.072,0.039,-0.017,102.0,102.0,99.0,13.3,1505.2,331.4,-0.7,1.8,2470.646,13.28,0.081,298.4
2021-11-14T01:28:03,42.805,6.029,-0.044,0.029,-0.004,102.0,100.0,101.0,13.3,1505.2,331.3,-0.7,1.8,2470.597,13.28,0.052,303.4
2021-11-14T01:31:03,42.805,6.029,-0.09,0.001,-0.037,101.0,101.0,101.0,13.4,1505.2,327.3,-0.8,1.8,2470.64,13.28,0.089,270.6
2021-11-14T01:34:03,42.805,6.029,-0.076,0.027,-0.039,101.0,102.0,100.0,13.4,1505.2,329.7,-0.7,1.8,2470.614,13.28,0.08,289.6
2021-11-14T01:37:03,42.805,6.029,-0.067,0.022,-0.058,101.0,103.0,99.0,13.4,1505.2,326.6,-0.7,1.9,2470.642,13.28,0.07,288.2
2021-11-14T01:40:03,42.805,6.029,-0.071,0.039,-0.001,101.0,101.0,101.0,13.4,1505.2,328.9,-0.7,1.8,2470.621,13.28,0.081,298.8
2021-11-14T01:43:03,42.805,6.029,-0.083,0.005,-0.03,100.0,101.0,100.0,13.4,1505.2,328.4,-0.7,1.8,2470.622,13.28,0.083,273.4
2021-11-14T01:46:03,42.805,6.029,-0.074,0.044,-0.021,103.0,100.0,100.0,13.4,1505.2,329.7,-0.7,1.8,2470.627,13.28,0.086,300.7
2021-11-14T01:49:03,42.805,6.029,-0.053,0.014,-0.043,101.0,102.0,99.0,13.4,1505.2,330.1,-0.8,1.8,2470.632,13.28,0.054,284.8
2021-11-14T01:52:03,42.805,6.029,-0.071,0.044,-0.012,101.0,101.0,99.0,13.4,1505.2,327.2,-0.8,1.8,2470.63,13.28,0.083,301.8
2021-11-14T01:55:03,42.805,6.029,-0.071,0.028,-0.029,100.0,102.0,99.0,13.4,1505.2,328.3,-0.8,1.8,2470.625,13.28,0.076,291.5
2021-11-14T01:58:03,42.805,6.029,-0.091,0.043,0.017,100.0,102.0,101.0,13.3,1505.2,329.8,-0.7,1.8,2470.633,13.28,0.1,295.3
2021-11-14T02:04:03,42.805,6.029,-0.062,0.041,0.003,100.0,102.0,100.0,13.4,1505.2,325.3,-0.8,1.8,2470.679,13.28,0.074,303.5
2021-11-14T02:07:03,42.805,6.029,-0.073,0.046,-0.033,101.0,101.0,100.0,13.4,1505.2,330.2,-0.8,1.8,2470.677,13.28,0.086,302.2
2021-11-14T02:10:03,42.805,6.029,-0.063,0.028,-0.038,101.0,101.0,100.0,13.4,1505.2,329.6,-0.8,1.8,2470.643,13.28,0.068,294.0
2021-11-14T02:13:03,42.805,6.029,-0.084,0.044,-0.018,101.0,101.0,100.0,13.4,1505.2,330.8,-0.7,1.8,2470.678,13.28,0.094,297.6
2021-11-14T02:16:03,42.805,6.029,-0.061,0.027,-0.023,100.0,102.0,100.0,13.3,1505.2,327.8,-0.8,1.8,2470.671,13.28,0.066,293.9
2021-11-14T02:19:03,42.805,6.029,-0.075,0.018,-0.029,101.0,101.0,100.0,13.4,1505.2,327.5,-0.8,1.8,2470.661,13.28,0.077,283.5
2021-11-14T02:22:03,42.805,6.029,-0.086,0.032,-0.016,101.0,100.0,101.0,13.3,1505.2,329.0,-0.8,1.8,2470.647,13.28,0.091,290.4
2021-11-14T02:25:03,42.805,6.029,-0.064,0.054,0.005,101.0,101.0,99.0,13.3,1505.2,327.6,-0.8,1.8,2470.644,13.28,0.083,310.2
2021-11-14T02:28:03,42.805,6.029,-0.053,0.042,-0.001,101.0,99.0,100.0,13.4,1505.2,327.8,-0.8,1.8,2470.653,13.28,0.067,308.4
2021-11-14T02:31:03,42.805,6.029,-0.057,0.053,0.012,99.0,100.0,101.0,13.4,1505.2,330.7,-0.8,1.8,2470.651,13.28,0.077,312.9
2021-11-14T02:34:03,42.805,6.029,-0.057,0.047,0.002,101.0,102.0,99.0,13.4,1505.2,329.2,-0.7,1.8,2470.698,13.28,0.073,309.5
2021-11-14T02:37:03,42.805,6.029,-0.061,0.009,-0.027,101.0,101.0,100.0,13.4,1505.2,327.9,-0.8,1.8,2470.652,13.28,0.061,278.4
2021-11-14T02:40:03,42.805,6.029,-0.053,0.049,-0.003,101.0,100.0,99.0,13.4,1505.2,328.3,-0.7,1.8,2470.582,13.28,0.072,312.8
2021-11-14T02:43:03,42.805,6.029,-0.044,0.024,-0.031,100.0,101.0,100.0,13.3,1505.2,328.0,-0.7,1.9,2470.652,13.28,0.05,298.6
2021-11-14T02:46:03,42.805,6.029,-0.04,0.028,0.011,100.0,101.0,100.0,13.4,1505.2,325.0,-0.7,1.8,2470.651,13.28,0.048,305.0
2021-11-14T02:49:03,42.805,6.029,-0.073,0.025,-0.011,101.0,101.0,100.0,13.4,1505.2,329.5,-0.8,1.8,2470.666,13.28,0.077,288.9
2021-11-14T02:52:03,42.805,6.029,-0.061,0.02,0.021,101.0,102.0,100.0,13.4,1505.2,327.3,-0.7,1.8,2470.659,13.28,0.064,288.1
2021-11-14T02:55:03,42.805,6.029,-0.078,0.032,-0.002,101.0,102.0,99.0,13.4,1505.2,329.8,-0.8,1.8,2470.677,13.28,0.084,292.3
2021-11-14T02:58:03,42.805,6.029,-0.046,0.06,0.014,101.0,101.0,99.0,13.3,1505.2,325.9,-0.8,1.8,2470.626,13.28,0.075,322.5
2021-11-14T03:04:03,42.805,6.029,-0.066,0.027,-0.033,102.0,99.0,101.0,13.3,1505.2,326.2,-0.7,1.8,2470.695,13.28,0.071,292.2
2021-11-14T03:07:03,42.805,6.029,-0.052,0.025,0.024,101.0,102.0,100.0,13.3,1505.2,328.5,-0.7,1.8,2470.705,13.28,0.057,295.7
2021-11-14T03:10:03,42.805,6.029,-0.063,0.032,0.0,101.0,101.0,100.0,13.3,1505.2,328.8,-0.7,1.8,2470.661,13.28,0.07,296.9
2021-11-14T03:13:03,42.805,6.029,-0.049,0.019,-0.002,102.0,99.0,100.0,13.4,1505.2,328.3,-0.7,1.8,2470.653,13.28,0.052,291.2
2021-11-14T03:16:03,42.805,6.029,-0.06,0.038,-0.029,100.0,101.0,101.0,13.4,1505.2,330.3,-0.8,1.8,2470.662,13.28,0.071,302.3
2021-11-14T03:19:03,42.805,6.029,-0.062,0.017,-0.049,101.0,101.0,100.0,13.4,1505.2,327.1,-0.8,1.8,2470.659,13.28,0.064,285.3
2021-11-14T03:22:03,42.805,6.029,-0.088,0.027,-0.03,100.0,101.0,101.0,13.4,1505.2,327.9,-0.8,1.8,2470.671,13.28,0.092,287.1
2021-11-14T03:25:03,42.805,6.029,-0.071,0.027,-0.003,101.0,102.0,98.0,13.3,1505.2,327.8,-0.8,1.8,2470.678,13.28,0.075,290.8
2021-11-14T03:28:03,42.805,6.029,-0.081,0.039,0.0,102.0,100.0,100.0,13.4,1505.2,329.3,-0.7,1.8,2470.643,13.28,0.089,295.7
2021-11-14T03:31:03,42.805,6.029,-0.054,0.05,-0.012,102.0,102.0,100.0,13.4,1505.2,327.1,-0.7,1.8,2470.63,13.28,0.073,312.8
2021-11-14T03:34:03,42.805,6.029,-0.051,0.0,-0.062,100.0,102.0,100.0,13.4,1505.2,329.9,-0.8,1.8,2470.665,13.28,0.051,270.0
2021-11-14T03:37:03,42.805,6.029,-0.05,0.011,-0.032,100.0,101.0,100.0,13.3,1505.2,327.5,-0.8,1.8,2470.629,13.28,0.051,282.4
2021-11-14T03:40:03,42.805,6.029,-0.071,0.027,-0.047,101.0,100.0,101.0,13.3,1505.2,328.3,-0.7,1.9,2470.646,13.28,0.075,290.8
2021-11-14T03:43:03,42.805,6.029,-0.063,0.018,-0.027,102.0,101.0,101.0,13.4,1505.2,327.0,-0.8,1.8,2470.651,13.28,0.065,285.9
2021-11-14T03:46:03,42.805,6.029,-0.074,0.024,-0.006,101.0,101.0,100.0,13.3,1505.2,327.4,-0.7,1.8,2470.666,13.28,0.077,288.0
2021-11-14T03:49:03,42.805,6.029,-0.072,0.037,0.0,101.0,102.0,99.0,13.3,1505.2,331.0,-0.8,1.8,2470.64,13.28,0.08,297.2
2021-11-14T03:52:03,42.805,6.029,-0.051,0.009,-0.028,101.0,100.0,100.0,13.4,1505.2,330.1,-0.8,1.8,2470.638,13.28,0.051,280.0
2021-11-14T03:55:03,42.805,6.029,-0.067,0.036,-0.03,102.0,99.0,100.0,13.4,1505.2,326.7,-0.8,1.8,2470.635,13.28,0.076,298.3
2021-11-14T03:58:03,42.805,6.029,-0.095,0.038,-0.031,101.0,101.0,99.0,13.4,1505.2,327.5,-0.8,1.8,2470.7,13.28,0.102,291.8
2021-11-14T04:04:03,42.805,6.029,-0.06,0.038,0.004,102.0,101.0,100.0,13.4,1505.2,327.2,-0.8,1.8,2470.738,13.28,0.071,302.3
2021-11-14T04:07:03,42.805,6.029,-0.05,0.033,-0.025,101.0,101.0,100.0,13.4,1505.2,326.1,-0.7,1.9,2470.67,13.28,0.059,303.4
2021-11-14T04:10:03,42.805,6.029,-0.047,0.019,-0.028,101.0,100.0,101.0,13.4,1505.2,326.7,-0.8,1.8,2470.722,13.28,0.05,292.0
2021-11-14T04:13:03,42.805,6.029,-0.045,0.013,-0.011,101.0,100.0,101.0,13.3,1505.2,325.8,-0.8,1.8,2470.666,13.28,0.046,286.1
2021-11-14T04:16:03,42.805,6.029,-0.044,-0.014,-0.071,102.0,100.0,100.0,13.3,1505.2,327.2,-0.7,1.8,2470.697,13.28,0.046,252.4
2021-11-14T04:19:03,42.805,6.029,-0.041,0.017,-0.015,102.0,101.0,99.0,13.3,1505.2,331.9,-0.7,1.8,2470.66,13.28,0.044,292.5
2021-11-14T04:22:03,42.805,6.029,-0.081,0.037,-0.033,104.0,103.0,100.0,13.4,1505.2,326.3,-0.8,1.8,2470.646,13.28,0.089,294.5
2021-11-14T04:25:03,42.805,6.029,-0.061,0.016,-0.029,102.0,102.0,99.0,13.3,1505.2,326.7,-0.8,1.8,2470.678,13.28,0.063,284.7
2021-11-14T04:28:03,42.805,6.029,-0.087,0.037,-0.02,100.0,102.0,100.0,13.4,1505.2,331.0,-0.8,1.9,2470.734,13.28,0.094,293.0
2021-11-14T04:31:03,42.805,6.029,-0.075,0.028,-0.001,102.0,100.0,99.0,13.4,1505.2,327.7,-0.8,1.8,2470.653,13.28,0.08,290.5
2021-11-14T04:34:03,42.805,6.029,-0.055,0.024,-0.056,102.0,101.0,99.0,13.3,1505.2,325.5,-0.8,1.8,2470.683,13.28,0.06,293.6
2021-11-14T04:37:03,42.805,6.029,-0.067,0.03,-0.022,102.0,101.0,100.0,13.3,1505.2,331.1,-0.8,1.8,2470.639,13.28,0.073,294.1
2021-11-14T04:40:03,42.805,6.029,-0.063,0.004,-0.014,101.0,102.0,100.0,13.3,1505.2,327.1,-0.7,1.9,2470.674,13.28,0.063,273.6
2021-11-14T04:43:03,42.805,6.029,-0.084,0.041,0.0,101.0,102.0,100.0,13.4,1505.2,328.5,-0.8,1.8,2470.702,13.28,0.093,296.0
2021-11-14T04:46:03,42.805,6.029,-0.034,0.007,-0.031,101.0,102.0,99.0,13.3,1505.2,327.3,-0.7,1.8,2470.669,13.28,0.034,281.6
2021-11-14T04:49:03,42.805,6.029,-0.051,0.023,-0.023,101.0,101.0,100.0,13.3,1505.2,325.5,-0.8,1.8,2470.636,13.28,0.055,294.3
2021-11-14T04:52:03,42.805,6.029,-0.061,0.028,-0.023,101.0,102.0,99.0,13.4,1505.2,327.4,-0.7,1.8,2470.669,13.28,0.067,294.7
2021-11-14T04:55:03,42.805,6.029,-0.083,0.019,-0.035,102.0,101.0,100.0,13.3,1505.2,325.0,-0.8,1.9,2470.69,13.28,0.085,282.9
2021-11-14T04:58:03,42.805,6.029,-0.066,0.031,-0.026,101.0,100.0,100.0,13.4,1505.2,328.8,-0.7,1.8,2470.665,13.28,0.072,295.2
2021-11-14T05:04:03,42.805,6.029,-0.066,0.029,-0.062,102.0,101.0,100.0,13.4,1505.2,327.3,-0.7,1.8,2470.708,13.28,0.072,293.7
2021-11-14T05:07:03,42.805,6.029,-0.049,0.009,-0.037,100.0,103.0,100.0,13.4,1505.2,327.4,-0.8,1.8,2470.674,13.28,0.049,280.4
2021-11-14T05:10:03,42.805,6.029,-0.05,0.008,-0.023,102.0,101.0,100.0,13.4,1505.2,329.3,-0.8,1.8,2470.676,13.28,0.05,279.1
2021-11-14T05:13:03,42.805,6.029,-0.079,0.0,-0.047,101.0,101.0,101.0,13.4,1505.2,327.9,-0.8,1.8,2470.661,13.28,0.078,270.0
2021-11-14T05:16:03,42.805,6.029,-0.047,0.026,-0.006,101.0,100.0,100.0,13.4,1505.2,325.6,-0.7,1.9,2470.621,13.28,0.053,298.9
2021-11-14T05:19:03,42.805,6.029,-0.055,0.034,-0.004,100.0,100.0,101.0,13.3,1505.2,324.8,-0.8,1.8,2470.642,13.28,0.064,301.7
2021-11-14T05:22:03,42.805,6.029,-0.047,0.052,0.012,103.0,100.0,100.0,13.4,1505.2,331.3,-0.7,1.9,2470.638,13.28,0.07,317.9
2021-11-14T05:25:03,42.805,6.029,-0.032,-0.006,-0.028,101.0,101.0,100.0,13.3,1505.2,330.7,-0.8,1.8,2470.676,13.28,0.032,259.4
2021-11-14T05:28:03,42.805,6.029,-0.049,0.029,-0.006,102.0,100.0,99.0,13.4,1505.2,331.4,-0.8,1.9,2470.639,13.28,0.056,300.6
2021-11-14T05:31:03,42.805,6.029,-0.052,-0.006,-0.069,100.0,101.0,101.0,13.4,1505.2,329.4,-0.8,1.8,2470.627,13.28,0.052,263.4
2021-11-14T05:34:03,42.805,6.029,-0.053,0.02,-0.004,101.0,101.0,100.0,13.3,1505.2,326.7,-0.8,1.8,2470.57,13.28,0.056,290.7
2021-11-14T05:37:03,42.805,6.029,-0.075,0.024,-0.013,101.0,101.0,100.0,13.4,1505.2,329.2,-0.7,1.8,2470.554,13.28,0.078,287.7
2021-11-14T05:40:03,42.805,6.029,-0.075,0.019,-0.052,102.0,100.0,101.0,13.4,1505.2,328.9,-0.7,1.8,2470.569,13.28,0.077,284.2
2021-11-14T05:43:03,42.805,6.029,-0.061,0.022,-0.032,100.0,102.0,100.0,13.4,1505.2,329.2,-0.7,1.8,2470.537,13.28,0.064,289.8
2021-11-14T05:46:03,42.805,6.029,-0.072,0.02,-0.046,100.0,101.0,100.0,13.4,1505.2,330.9,-0.8,1.8,2470.556,13.28,0.074,285.5
2021-11-14T05:49:03,42.805,6.029,-0.059,0.031,0.002,101.0,101.0,101.0,13.4,1505.2,325.3,-0.7,1.8,2470.553,13.28,0.066,297.7
2021-11-14T05:52:03,42.805,6.029,-0.041,0.014,-0.026,102.0,101.0,99.0,13.4,1505.2,327.4,-0.8,1.8,2470.512,13.28,0.043,288.9
2021-11-14T05:55:03,42.805,6.029,-0.063,0.018,-0.035,101.0,101.0,101.0,13.4,1505.2,328.4,-0.7,1.8,2470.533,13.28,0.065,285.9
2021-11-14T05:58:03,42.805,6.029,-0.077,0.033,-0.001,100.0,102.0,100.0,13.3,1505.2,329.9,-0.8,1.8,2470.536,13.28,0.083,293.2
2021-11-14T06:04:03,42.805,6.029,-0.071,0.006,-0.067,101.0,101.0,100.0,13.3,1505.2,326.8,-0.8,1.8,2470.56,13.28,0.071,274.8
2021-11-14T06:07:03,42.805,6.029,-0.049,0.013,-0.021,101.0,102.0,100.0,13.3,1505.2,325.7,-0.8,1.8,2470.562,13.28,0.05,284.9
2021-11-14T06:10:03,42.805,6.029,-0.062,0.025,0.0,101.0,100.0,100.0,13.4,1505.2,325.7,-0.7,1.8,2470.581,13.28,0.066,292.0
2021-11-14T06:13:03,42.805,6.029,-0.058,0.027,-0.014,101.0,101.0,100.0,13.3,1505.2,330.9,-0.7,1.8,2470.577,13.28,0.063,295.0
2021-11-14T06:16:03,42.805,6.029,-0.072,0.007,-0.043,100.0,102.0,100.0,13.4,1505.2,328.3,-0.7,1.8,2470.55,13.28,0.072,275.5
2021-11-14T06:19:03,42.805,6.029,-0.055,0.024,-0.007,102.0,102.0,100.0,13.4,1505.2,329.4,-0.7,1.8,2470.552,13.28,0.06,293.6
2021-11-14T06:22:03,42.805,6.029,-0.059,0.003,-0.044,102.0,99.0,100.0,13.3,1505.2,327.0,-0.8,1.8,2470.554,13.28,0.059,272.9
2021-11-14T06:25:03,42.805,6.029,-0.073,0.037,-0.015,103.0,100.0,100.0,13.4,1505.2,327.7,-0.8,1.8,2470.554,13.28,0.081,296.9
2021-11-14T06:28:03,42.805,6.029,-0.059,-0.003,-0.031,103.0,99.0,101.0,13.4,1505.2,327.7,-0.7,1.8,2470.564,13.28,0.059,267.1
2021-11-14T06:31:03,42.805,6.029,-0.041,0.033,-0.005,102.0,100.0,100.0,13.4,1505.2,328.5,-0.8,1.8,2470.566,13.28,0.052,308.8
2021-11-14T06:34:03,42.805,6.029,-0.072,0.019,-0.052,102.0,99.0,98.0,13.4,1505.2,325.6,-0.8,1.8,2470.554,13.28,0.074,284.8
2021-11-14T06:37:03,42.805,6.029,-0.043,0.032,-0.006,99.0,103.0,100.0,13.4,1505.2,327.0,-0.8,1.8,2470.597,13.28,0.053,306.7
2021-11-14T06:40:03,42.805,6.029,-0.053,0.014,-0.021,102.0,101.0,100.0,13.4,1505.2,325.3,-0.8,1.8,2470.589,13.28,0.054,284.8
2021-11-14T06:43:03,42.805,6.029,-0.061,0.007,-0.06,101.0,101.0,100.0,13.4,1505.2,328.3,-0.8,1.8,2470.621,13.28,0.061,276.5
2021-11-14T06:46:03,42.805,6.029,-0.085,0.003,-0.047,101.0,102.0,101.0,13.4,1505.2,326.0,-0.8,1.8,2470.576,13.28,0.085,272.0
2021-11-14T06:49:03,42.805,6.029,-0.052,0.029,-0.003,101.0,100.0,101.0,13.4,1505.2,327.3,-0.7,1.8,2470.596,13.28,0.059,299.1
2021-11-14T06:52:03,42.805,6.029,-0.038,0.017,0.0,102.0,100.0,101.0,13.4,1505.2,330.0,-0.8,1.8,2470.6,13.28,0.041,294.1
2021-11-14T06:55:03,42.805,6.029,-0.053,0.019,-0.01,102.0,101.0,100.0,13.3,1505.2,326.3,-0.7,1.9,2470.562,13.28,0.056,289.7
2021-11-14T06:58:03,42.805,6.029,-0.086,0.04,-0.016,101.0,101.0,100.0,13.3,1505.2,325.1,-0.7,1.8,2470.589,13.28,0.094,294.9
2021-11-14T07:04:03,42.805,6.029,-0.054,0.027,0.006,101.0,102.0,101.0,13.4,1505.2,330.9,-0.8,1.8,2470.647,13.28,0.06,296.6
2021-11-14T07:07:03,42.805,6.029,-0.031,0.024,-0.016,101.0,99.0,101.0,13.3,1505.2,328.8,-0.8,1.8,2470.664,13.28,0.039,307.7
2021-11-14T07:10:03,42.805,6.029,-0.062,0.02,-0.022,102.0,100.0,100.0,13.4,1505.2,328.3,-0.7,1.8,2470.632,13.28,0.065,287.9
2021-11-14T07:13:03,42.805,6.029,-0.062,0.013,-0.022,102.0,102.0,99.0,13.4,1505.2,331.2,-0.8,1.9,2470.632,13.28,0.063,281.8
2021-11-14T07:16:03,42.805,6.029,-0.083,0.006,-0.04,102.0,102.0,100.0,13.4,1505.2,327.0,-0.8,1.8,2470.63,13.28,0.083,274.1
2021-11-14T07:19:03,42.805,6.029,-0.055,0.002,-0.019,101.0,101.0,100.0,13.3,1505.2,330.0,-0.7,1.8,2470.588,13.28,0.055,272.1
2021-11-14T07:22:03,42.805,6.029,-0.079,0.023,-0.047,102.0,101.0,101.0,13.4,1505.2,325.6,-0.8,1.8,2470.644,13.28,0.082,286.2
2021-11-14T07:25:03,42.805,6.029,-0.068,0.02,-0.078,101.0,100.0,100.0,13.3,1505.2,325.6,-0.8,1.8,2470.621,13.28,0.07,286.4
2021-11-14T07:28:03,42.805,6.029,-0.055,0.019,-0.022,102.0,100.0,100.0,13.4,1505.2,328.7,-0.8,1.8,2470.603,13.28,0.058,289.1
2021-11-14T07:31:03,42.805,6.029,-0.058,0.03,-0.026,101.0,101.0,100.0,13.4,1505.2,330.0,-0.8,1.8,2470.632,13.28,0.065,297.4
2021-11-14T07:34:03,42.805,6.029,-0.061,0.024,-0.026,101.0,101.0,101.0,13.4,1505.2,328.9,-0.7,1.8,2470.595,13.28,0.065,291.5
2021-11-14T07:37:03,42.805,6.029,-0.051,0.033,-0.005,101.0,101.0,100.0,13.4,1505.2,327.5,-0.8,1.8,2470.615,13.28,0.06,302.9
2021-11-14T07:40:03,42.805,6.029,-0.05,0.025,-0.02,101.0,100.0,101.0,13.3,1505.2,329.2,-0.7,1.8,2470.606,13.28,0.055,296.6
2021-11-14T07:43:03,42.805,6.029,-0.066,0.039,0.012,100.0,101.0,101.0,13.4,1505.2,328.0,-0.7,1.8,2470.637,13.28,0.076,300.6
2021-11-14T07:46:03,42.805,6.029,-0.035,0.014,0.028,100.0,100.0,100.0,13.4,1505.2,326.7,-0.8,1.8,2470.56,13.28,0.037,291.8
2021-11-14T07:49:03,42.805,6.029,-0.064,0.02,0.012,102.0,100.0,102.0,13.4,1505.2,326.1,-0.8,1.8,2470.628,13.28,0.067,287.4
2021-11-14T07:52:03,42.805,6.029,-0.06,0.043,0.006,101.0,101.0,100.0,13.4,1505.2,331.0,-0.7,1.8,2470.597,13.28,0.073,305.6
2021-11-14T07:55:03,42.805,6.029,-0.059,0.008,-0.018,101.0,101.0,100.0,13.3,1505.2,327.6,-0.8,1.8,2470.643,13.28,0.059,277.7
2021-11-14T07:58:03,42.805,6.029,-0.064,0.014,-0.038,100.0,101.0,101.0,13.4,1505.2,329.2,-0.7,1.8,2470.586,13.28,0.065,282.3
2021-11-14T08:04:03,42.805,6.029,-0.049,0.019,-0.03,101.0,101.0,100.0,13.4,1505.2,325.5,-0.8,1.8,2470.617,13.28,0.052,291.2
2021-11-14T08:07:03,42.805,6.029,-0.043,0.015,-0.015,101.0,102.0,100.0,13.4,1505.2,328.5,-0.8,1.8,2470.662,13.28,0.045,289.2
2021-11-14T08:10:03,42.805,6.029,-0.075,0.039,-0.03,100.0,102.0,100.0,13.3,1505.2,324.9,-0.8,1.8,2470.668,13.28,0.084,297.5
2021-11-14T08:13:03,42.805,6.029,-0.055,0.025,-0.014,101.0,101.0,100.0,13.4,1505.2,328.0,-0.8,1.8,2470.627,13.28,0.06,294.4
2021-11-14T08:16:03,42.805,6.029,-0.049,0.043,-0.026,100.0,102.0,101.0,13.4,1505.2,328.5,-0.7,1.8,2470.58,13.28,0.065,311.3
2021-11-14T08:19:03,42.805,6.029,-0.045,0.02,-0.001,101.0,101.0,101.0,13.4,1505.2,329.2,-0.8,1.8,2470.605,13.28,0.049,294.0
2021-11-14T08:22:03,42.805,6.029,-0.065,0.041,-0.031,101.0,101.0,101.0,13.3,1505.2,327.1,-0.7,1.8,2470.646,13.28,0.076,302.2
2021-11-14T08:25:03,42.805,6.029,-0.077,0.037,-0.006,101.0,100.0,100.0,13.4,1505.2,327.9,-0.8,1.8,2470.574,13.28,0.085,295.7
2021-11-14T08:28:03,42.805,6.029,-0.056,0.013,-0.042,102.0,101.0,99.0,13.4,1505.2,326.9,-0.7,1.8,2470.583,13.28,0.057,283.1
2021-11-14T08:31:03,42.805,6.029,-0.041,0.022,-0.017,101.0,101.0,99.0,13.4,1505.2,327.8,-0.8,1.8,2470.593,13.28,0.046,298.2
2021-11-14T08:34:03,42.805,6.029,-0.066,0.031,0.0,100.0,101.0,100.0,13.4,1505.2,328.9,-0.8,1.8,2470.572,13.28,0.072,295.2
2021-11-14T08:37:03,42.805,6.029,-0.048,0.01,-0.075,100.0,102.0,100.0,13.3,1505.2,325.8,-0.8,1.9,2470.6,13.28,0.049,281.8
2021-11-14T08:40:03,42.805,6.029,-0.043,0.025,-0.013,101.0,101.0,101.0,13.4,1505.2,327.0,-0.7,1.8,2470.543,13.28,0.049,300.2
2021-11-14T08:43:03,42.805,6.029,-0.048,0.024,-0.019,102.0,102.0,100.0,13.4,1505.2,330.6,-0.8,1.8,2470.604,13.28,0.053,296.6
2021-11-14T08:46:03,42.805,6.029,-0.08,0.033,-0.037,101.0,101.0,100.0,13.4,1505.2,325.1,-0.8,1.8,2470.605,13.28,0.086,292.4
2021-11-14T08:49:03,42.805,6.029,-0.06,0.039,-0.018,101.0,101.0,100.0,13.4,1505.2,331.2,-0.7,1.8,2470.604,13.28,0.071,303.0
2021-11-14T08:52:03,42.805,6.029,-0.058,0.005,-0.029,101.0,102.0,100.0,13.4,1505.2,327.5,-0.8,1.8,2470.588,13.28,0.058,274.9
2021-11-14T08:55:03,42.805,6.029,-0.053,0.018,-0.027,101.0,100.0,100.0,13.3,1505.2,324.8,-0.8,1.8,2470.625,13.28,0.055,288.8
2021-11-14T08:58:03,42.805,6.029,-0.039,0.029,0.017,101.0,101.0,99.0,13.3,1505.2,332.0,-0.8,1.8,2470.626,13.28,0.048,306.6
2021-11-14T09:04:03,42.805,6.029,-0.049,0.018,-0.034,102.0,101.0,100.0,13.4,1505.2,329.7,-0.7,1.8,2470.64,13.28,0.052,290.2
2021-11-14T09:07:03,42.805,6.029,-0.063,0.03,-0.036,101.0,101.0,100.0,13.3,1505.2,326.8,-0.7,1.8,2470.6,13.28,0.069,295.5
2021-11-14T09:10:03,42.805,6.029,-0.045,0.025,-0.014,104.0,101.0,100.0,13.3,1505.2,328.2,-0.7,1.8,2470.61,13.28,0.051,299.1
2021-11-14T09:13:03,42.805,6.029,-0.066,0.037,-0.001,102.0,98.0,100.0,13.4,1505.2,327.2,-0.8,1.8,2470.571,13.28,0.075,299.3
2021-11-14T09:16:03,42.805,6.029,-0.073,0.023,-0.019,100.0,101.0,100.0,13.4,1505.2,325.1,-0.7,1.8,2470.595,13.28,0.076,287.5
2021-11-14T09:19:03,42.805,6.029,-0.042,0.026,0.001,102.0,100.0,100.0,13.3,1505.2,329.7,-0.8,1.8,2470.608,13.28,0.049,301.8
2021-11-14T09:22:03,42.805,6.029,-0.039,0.033,-0.003,101.0,102.0,99.0,13.4,1505.2,329.1,-0.8,1.8,2470.617,13.28,0.051,310.2
2021-11-14T09:25:03,42.805,6.029,-0.032,0.012,-0.008,102.0,101.0,99.0,13.4,1505.2,328.5,-0.7,1.8,2470.571,13.28,0.034,290.6
2021-11-14T09:28:03,42.805,6.029,-0.056,-0.015,-0.035,101.0,101.0,100.0,13.3,1505.2,328.5,-0.8,1.8,2470.59,13.28,0.057,255.0
2021-11-14T09:31:03,42.805,6.029,-0.081,0.027,-0.038,101.0,101.0,99.0,13.4,1505.2,329.8,-0.8,1.8,2470.572,13.28,0.085,288.4
2021-11-14T09:34:03,42.805,6.029,-0.041,-0.007,-0.035,101.0,101.0,100.0,13.4,1505.2,326.3,-0.8,1.8,2470.586,13.28,0.041,260.3
2021-11-14T09:37:03,42.805,6.029,-0.063,0.036,-0.025,101.0,101.0,100.0,13.3,1505.2,326.8,-0.8,1.8,2470.547,13.28,0.072,299.7
2021-11-14T09:40:03,42.805,6.029,-0.082,0.057,0.005,100.0,102.0,100.0,13.4,1505.2,327.3,-0.8,1.8,2470.579,13.28,0.099,304.8
2021-11-14T09:43:03,42.805,6.029,-0.062,0.018,-0.037,101.0,101.0,100.0,13.4,1505.2,327.3,-0.8,1.8,2470.547,13.28,0.064,286.2
2021-11-14T09:46:03,42.805,6.029,-0.064,0.042,0.003,101.0,101.0,100.0,13.4,1505.2,330.2,-0.7,1.9,2470.54,13.28,0.076,303.3
2021-11-14T09:49:03,42.805,6.029,-0.051,0.009,-0.024,102.0,100.0,100.0,13.4,1505.2,329.3,-0.8,1.8,2470.557,13.28,0.051,280.0
2021-11-14T09:52:03,42.805,6.029,-0.064,0.027,-0.013,101.0,100.0,100.0,13.4,1505.2,329.1,-0.8,1.8,2470.557,13.28,0.069,292.9
2021-11-14T09:55:03,42.805,6.029,-0.061,0.019,-0.018,102.0,100.0,100.0,13.4,1505.2,327.5,-0.8,1.8,2470.579,13.28,0.063,287.3